Regional Weather Roundup
Issued by NWS Newport/Morehead, NC

Current Version | Previous Version | Graphics & Text | Print | Product List | Glossary Off
Versions: 1 2 3 4 5 6 7 8 9 10 11 12 13 14 15 16 17 18 19 20 21 22 23 24 25 26 27 28 29 30 31 32 33 34 35 36 37 38 39 40 41 42 43 44 45 46 47 48 49 50

000
ASUS42 KMHX 030724
RWRMHX
WEATHER ROUNDUP FOR EASTERN NORTH CAROLINA
NATIONAL WEATHER SERVICE NEWPORT/MOREHEAD CITY NC
200 AM EST TUE MAR 03 2015

NOTE: "FAIR" INDICATES FEW OR NO CLOUDS BELOW 12,000 FEET
WITH NO SIGNIFICANT WEATHER AND/OR OBSTRUCTIONS TO VISIBILITY

NCZ015>017-031-032-045>047-102-103-030800-
NORTH COAST

CITY           SKY/WX    TMP DP  RH WIND       PRES   REMARKS
EDENTON        PTCLDY    34  25  67 CALM      30.40F
ELIZABETH CITY MOCLDY    36  22  56 NE12      30.39F
KITTY HAWK     MOSUNNY   37  28  68 N7        30.36F
MANTEO         PTCLDY    37  27  65 NE12      30.37F

$$

NCZ045>047-081-094-103-104-030800-
CENTRAL COAST

CITY           SKY/WX    TMP DP  RH WIND       PRES   REMARKS
FRISCO         CLEAR     39  32  76 N6        30.37S
SWANQUARTER      N/A     36 N/A N/A NE3       30.33F

$$

NCZ095-097-098-100-101-030800-
SOUTHERN COAST

CITY           SKY/WX    TMP DP  RH WIND       PRES   REMARKS
BEAUFORT       PTCLDY    38  30  73 NE6       30.37F
CEDAR ISLAND     N/A     39 N/A N/A VRB9      30.39F
JACKSONVILLE   NOT AVBL
PINEY ISLAND     N/A    N/A N/A N/A MISG      30.37S
WILMINGTON     MOCLDY    42  31  64 NE12      30.34F


$$

NCZ011>013-027>030-043-044-078>080-089-090>093-098-030800-
COASTAL PLAIN

CITY           SKY/WX    TMP DP  RH WIND       PRES   REMARKS
AHOSKIE        PTCLDY    30  24  78 CALM      30.41S
CLINTON        PTCLDY    40  33  75 E7        30.36S
ELIZABETHTOWN  CLOUDY    41  32  70 E6        30.35R
GOLDSBORO      MOCLDY    39  38  97 E7        30.36S
GREENVILLE     MOCLDY    36  32  87 CALM      30.39S
HAVELOCK       PTCLDY    40  26  57 NE9       30.39S
KENANSVILLE    PTCLDY    39  31  73 E3        30.38F
KINSTON        MOCLDY    38  29  68 E5        30.39S
NEW BERN       MOCLDY    37  29  72 NE3       30.39S
RICHLANDS      PTCLDY    37  28  70 NE9       30.37F
ROCKY MOUNT    PTCLDY    35  33  92 CALM      30.39R
WASHINGTON     MOCLDY    35  27  71 CALM      30.39S
WHITEVILLE     CLOUDY    44  36  74 NE8       30.33R

$$

AMZ130-135-150-152-154-156-158-170-250-252-270-ANZ085-086-088-633-658-670-030800-
MARINE OBSERVATIONS

STATION/POSITION TIME  TEMP    WIND        PRES    WAVE   SWELL
                       AIR SEA DIR/SP/G            HT/PER HT/PER
                 (UTC) (F)     (DEG/KT/KT) (MB)    (FT/S) (FT/S)
CHESAPEAKE LIGHT 0700   35      20/ 14/ 16 1030.0
64 E VA BEACH    0650   42 58   20/ 16/ 19 1028.1    6/ 7   2/16
DUCK             0700           20/ 14/ 15   N/A
2 E DUCK         0611      34                N/A     3/ 6
10 NE DUCK       0622      37                N/A     4/ 6
OREGON INLET     0700           20/ 12/ 16   N/A
HATTERAS CG      0700           10/ 12/ 13   N/A
CAPE LOOKOUT     0700   46      40/ 23/ 25 1027.7
BEAUFORT LAB     0700           30/  4/  7   N/A
27 SE WRIGHTSVLE NOT AVBL
5 SE WRIGHTSVLE  NOT AVBL
225 S CAPE HAT   0650   67 73   40/ 14/ 16 1024.0    6/ 8   3/ 8
41 SE CHARLESTON 0650   66 67   90/ 14/ 16 1023.1    4/ 9   3/ 9

$$



USA.gov is the U.S. government's official web portal to all federal, state and local government web resources and services.